TVP7413 LGZA-EPWA

Flight info

Callsign TVP7413
Flight time 2h 15m
Altitude 36000
Route OSDES Y302 SOTEG UY302 GARTA UV60 YNN UN731 KAS/N0461F380 UN731 BITLA DCT LONTA UM749 UDVAR DCT PARAK/N0458F370 DCT KEKED/N0455F380 DCT LENOV DCT ORTEB DCT KONZI DCT LOGDA
Aircraft B38M/M-SDE3FGHIJ1RWXY/LB1

Departure

Time 2026-05-01 08:24
Airport Zakynthos International Airport Dionysios Solomos (LGZA)

Arrival

Time 2026-05-01 10:40
Airport Warsaw Chopin Airport (EPWA)
Time Latitude Longitude Altitude Speed Heading
2026-05-01 07:49 37.75369 20.88534 24 ft 0 kts 73°
2026-05-01 08:17 37.75366 20.88520 26 ft 4 kts 72°
2026-05-01 08:17 37.75357 20.88488 27 ft 4 kts 74°
2026-05-01 08:17 37.75354 20.88457 26 ft 4 kts 109°
2026-05-01 08:17 37.75361 20.88446 27 ft 0 kts 164°
2026-05-01 08:20 37.75360 20.88446 27 ft 1 kts 164°
2026-05-01 08:20 37.75340 20.88454 26 ft 6 kts 160°
2026-05-01 08:21 37.75283 20.88474 25 ft 11 kts 179°
2026-05-01 08:21 37.75212 20.88398 22 ft 16 kts 202°
2026-05-01 08:21 37.75113 20.88418 23 ft 14 kts 161°
2026-05-01 08:21 37.75012 20.88459 22 ft 16 kts 161°
2026-05-01 08:22 37.74898 20.88501 22 ft 18 kts 165°
2026-05-01 08:22 37.74776 20.88545 23 ft 19 kts 163°
2026-05-01 08:22 37.74647 20.88594 27 ft 20 kts 164°
2026-05-01 08:22 37.74510 20.88643 25 ft 21 kts 164°
2026-05-01 08:23 37.74403 20.88679 26 ft 12 kts 177°
2026-05-01 08:23 37.74351 20.88684 26 ft 2 kts 108°
2026-05-01 08:23 37.74365 20.88696 27 ft 5 kts 355°
2026-05-01 08:23 37.74415 20.88678 24 ft 12 kts 343°
2026-05-01 08:24 37.74659 20.88587 25 ft 75 kts 343°
2026-05-01 08:24 37.75413 20.88307 24 ft 147 kts 344°
2026-05-01 08:24 37.76527 20.87876 418 ft 175 kts 344°
2026-05-01 08:24 37.77719 20.87417 1285 ft 181 kts 343°
2026-05-01 08:25 37.79006 20.86935 1581 ft 207 kts 343°
2026-05-01 08:25 37.80432 20.86405 2082 ft 219 kts 343°
2026-05-01 08:25 37.81903 20.85834 2835 ft 223 kts 343°
2026-05-01 08:25 37.83415 20.85262 3472 ft 231 kts 342°
2026-05-01 08:26 37.84970 20.84672 4208 ft 231 kts 342°
2026-05-01 08:26 37.86522 20.84133 4921 ft 237 kts 351°
2026-05-01 08:26 37.88198 20.84148 5515 ft 246 kts
2026-05-01 08:26 37.89899 20.84346 6295 ft 246 kts 360°
2026-05-01 08:27 37.91638 20.84338 6917 ft 251 kts 356°
2026-05-01 08:27 37.93381 20.84273 7680 ft 251 kts 356°
2026-05-01 08:27 37.95174 20.84221 8193 ft 262 kts 355°
2026-05-01 08:27 37.96994 20.84198 8976 ft 262 kts 356°
2026-05-01 08:28 37.98828 20.84180 9671 ft 266 kts 356°
2026-05-01 08:28 38.00701 20.84163 10250 ft 273 kts 356°
2026-05-01 08:28 38.02622 20.84150 10845 ft 279 kts 355°
2026-05-01 08:28 38.04615 20.84121 11170 ft 297 kts 355°
2026-05-01 08:29 38.06740 20.84093 11406 ft 316 kts 355°
2026-05-01 08:29 38.09002 20.84066 11660 ft 334 kts 355°
2026-05-01 08:29 38.11372 20.84037 12082 ft 344 kts 355°
2026-05-01 08:29 38.13764 20.84008 12844 ft 345 kts 355°
2026-05-01 08:30 38.16153 20.83980 13504 ft 350 kts 355°
2026-05-01 08:30 38.18598 20.83951 14193 ft 352 kts 355°
2026-05-01 08:30 38.21065 20.83922 14830 ft 356 kts 355°
2026-05-01 08:30 38.23542 20.83893 15494 ft 359 kts 354°
2026-05-01 08:31 38.26051 20.83863 16163 ft 362 kts 354°
2026-05-01 08:31 38.28577 20.83834 16840 ft 365 kts 354°
2026-05-01 08:31 38.31122 20.83804 17499 ft 369 kts 354°
2026-05-01 08:31 38.33696 20.83773 18126 ft 372 kts 353°
2026-05-01 08:32 38.36298 20.83743 18703 ft 375 kts 353°
2026-05-01 08:32 38.38917 20.83712 19244 ft 377 kts 353°
2026-05-01 08:32 38.41547 20.83681 19780 ft 379 kts 353°
2026-05-01 08:32 38.44196 20.83649 20291 ft 382 kts 353°
2026-05-01 08:33 38.46860 20.83618 20820 ft 384 kts 352°
2026-05-01 08:33 38.49542 20.83586 21334 ft 386 kts 352°
2026-05-01 08:33 38.52239 20.83554 21859 ft 389 kts 352°
2026-05-01 08:33 38.54952 20.83522 22368 ft 391 kts 352°
2026-05-01 08:34 38.57667 20.83489 22898 ft 393 kts 352°
2026-05-01 08:34 38.60415 20.83456 23393 ft 396 kts 352°
2026-05-01 08:34 38.63181 20.83423 23850 ft 399 kts 351°
2026-05-01 08:34 38.65969 20.83390 24282 ft 401 kts 351°
2026-05-01 08:35 38.68726 20.83357 24715 ft 402 kts 351°
2026-05-01 08:35 38.71529 20.83324 25150 ft 404 kts 351°
2026-05-01 08:35 38.74352 20.83290 25578 ft 406 kts 351°
2026-05-01 08:35 38.77190 20.83256 26002 ft 408 kts 351°
2026-05-01 08:36 38.80037 20.83221 26387 ft 410 kts 350°
2026-05-01 08:36 38.82902 20.83188 26765 ft 413 kts 350°
2026-05-01 08:36 38.85780 20.83153 27194 ft 414 kts 350°
2026-05-01 08:36 38.88671 20.83119 27595 ft 416 kts 350°
2026-05-01 08:37 38.91561 20.83084 27988 ft 418 kts 350°
2026-05-01 08:37 38.94481 20.83049 28369 ft 420 kts 349°
2026-05-01 08:37 38.97406 20.83014 28745 ft 422 kts 349°
2026-05-01 08:37 39.00350 20.82978 29143 ft 424 kts 349°
2026-05-01 08:38 39.03259 20.82943 29519 ft 425 kts 349°
2026-05-01 08:38 39.06196 20.82908 29884 ft 427 kts 349°
2026-05-01 08:38 39.09159 20.82872 30207 ft 429 kts 349°
2026-05-01 08:38 39.12122 20.82837 30494 ft 431 kts 349°
2026-05-01 08:39 39.15134 20.82801 30730 ft 434 kts 349°
2026-05-01 08:39 39.18155 20.82764 31050 ft 435 kts 349°
2026-05-01 08:39 39.21181 20.82727 31413 ft 435 kts 349°
2026-05-01 08:39 39.24203 20.82692 31774 ft 435 kts 349°
2026-05-01 08:40 39.30268 20.82617 32422 ft 433 kts 349°
2026-05-01 08:40 39.33300 20.82580 32726 ft 434 kts 349°
2026-05-01 08:40 39.36288 20.82543 32935 ft 436 kts 349°
2026-05-01 08:41 39.39361 20.82507 33084 ft 437 kts 349°
2026-05-01 08:41 39.42358 20.82468 33398 ft 435 kts 349°
2026-05-01 08:41 39.45379 20.82433 33718 ft 436 kts 350°
2026-05-01 08:41 39.48411 20.82397 34023 ft 437 kts 350°
2026-05-01 08:42 39.51451 20.82360 34320 ft 437 kts 350°
2026-05-01 08:42 39.53506 20.82334 34502 ft 438 kts 350°
2026-05-01 08:42 39.57501 20.82285 34785 ft 439 kts 350°
2026-05-01 08:42 39.60555 20.82248 35027 ft 440 kts 350°
2026-05-01 08:43 39.62628 20.82223 35215 ft 440 kts 350°
2026-05-01 08:43 39.65688 20.82185 35544 ft 439 kts 351°
2026-05-01 08:43 39.68751 20.82206 35731 ft 446 kts 357°
2026-05-01 08:43 39.71824 20.83064 35995 ft 461 kts 11°
2026-05-01 08:44 39.74862 20.84387 36178 ft 462 kts 10°
2026-05-01 08:44 39.77924 20.85714 36380 ft 463 kts 11°
2026-05-01 08:44 39.80964 20.87061 36618 ft 463 kts 11°
2026-05-01 08:44 39.83992 20.88417 36852 ft 464 kts 11°
2026-05-01 08:45 39.87042 20.89791 37119 ft 464 kts 12°
2026-05-01 08:45 39.90049 20.91142 37324 ft 463 kts 12°
2026-05-01 08:45 39.93097 20.92520 37568 ft 463 kts 12°
2026-05-01 08:45 39.96146 20.93898 37767 ft 464 kts 12°
2026-05-01 08:46 39.99186 20.95273 37951 ft 464 kts 12°
2026-05-01 08:46 40.02175 20.96626 38166 ft 464 kts 12°
2026-05-01 08:46 40.08251 20.99381 38116 ft 460 kts 12°
2026-05-01 08:47 40.14278 21.02116 38223 ft 461 kts 12°
2026-05-01 08:47 40.20336 21.04871 38186 ft 460 kts 12°
2026-05-01 08:48 40.26393 21.07630 38195 ft 460 kts 13°
2026-05-01 08:48 40.32399 21.10374 38230 ft 459 kts 13°
2026-05-01 08:49 40.38443 21.13139 38197 ft 460 kts 13°
2026-05-01 08:49 40.44491 21.15912 38232 ft 460 kts 13°
2026-05-01 08:50 40.50503 21.18673 38220 ft 461 kts 13°
2026-05-01 08:50 40.56544 21.21452 38226 ft 461 kts 13°
2026-05-01 08:51 40.62602 21.24245 38232 ft 461 kts 13°
2026-05-01 08:51 40.68644 21.27036 38220 ft 460 kts 13°
2026-05-01 08:52 40.74688 21.29832 38218 ft 460 kts 13°
2026-05-01 08:52 40.80709 21.32617 38215 ft 459 kts 12°
2026-05-01 08:53 40.86798 21.35031 38204 ft 449 kts 359°
2026-05-01 08:53 40.89865 21.34964 38240 ft 435 kts 347°
2026-05-01 08:53 40.92877 21.34459 38230 ft 438 kts 347°
2026-05-01 08:54 40.98909 21.33280 38248 ft 438 kts 346°
2026-05-01 08:54 41.04883 21.31999 38237 ft 439 kts 346°
2026-05-01 08:55 41.10943 21.30667 38265 ft 439 kts 346°
2026-05-01 08:55 41.16921 21.29347 38263 ft 438 kts 346°
2026-05-01 08:56 41.22949 21.28014 38274 ft 439 kts 346°
2026-05-01 08:56 41.28969 21.26680 38237 ft 440 kts 346°
2026-05-01 08:57 41.35004 21.25341 38246 ft 440 kts 346°
2026-05-01 08:57 41.41041 21.23998 38243 ft 439 kts 346°
2026-05-01 08:58 41.47077 21.22653 38253 ft 440 kts 346°
2026-05-01 08:58 41.53101 21.21308 38249 ft 440 kts 346°
2026-05-01 08:59 41.59150 21.19956 38251 ft 441 kts 346°
2026-05-01 08:59 41.65199 21.18601 38260 ft 441 kts 346°
2026-05-01 09:00 41.71216 21.17250 38260 ft 441 kts 346°
2026-05-01 09:00 41.77286 21.15884 38267 ft 441 kts 346°
2026-05-01 09:01 41.83305 21.14528 38262 ft 441 kts 346°
2026-05-01 09:01 41.89375 21.13159 38256 ft 441 kts 347°
2026-05-01 09:02 41.95438 21.11786 38269 ft 442 kts 347°
2026-05-01 09:02 42.01484 21.10415 38273 ft 441 kts 347°
2026-05-01 09:03 42.07542 21.09039 38279 ft 441 kts 347°
2026-05-01 09:03 42.13602 21.07661 38271 ft 441 kts 347°
2026-05-01 09:04 42.19632 21.06285 38275 ft 442 kts 347°
2026-05-01 09:04 42.25678 21.04905 38292 ft 441 kts 347°
2026-05-01 09:05 42.31739 21.03517 38271 ft 442 kts 347°
2026-05-01 09:05 42.37797 21.02128 38289 ft 442 kts 347°
2026-05-01 09:06 42.43860 21.00735 38299 ft 442 kts 347°
2026-05-01 09:06 42.49916 20.99341 38295 ft 442 kts 347°
2026-05-01 09:07 42.55968 20.97945 38290 ft 442 kts 347°
2026-05-01 09:07 42.62033 20.96543 38290 ft 442 kts 347°
2026-05-01 09:08 42.68110 20.95136 38298 ft 443 kts 348°
2026-05-01 09:08 42.74173 20.93729 38288 ft 443 kts 348°
2026-05-01 09:09 42.80169 20.92335 38282 ft 443 kts 348°
2026-05-01 09:09 42.86261 20.90916 38281 ft 443 kts 348°
2026-05-01 09:10 42.92340 20.89497 38282 ft 443 kts 348°
2026-05-01 09:10 42.98411 20.88077 38293 ft 444 kts 348°
2026-05-01 09:11 43.04493 20.86651 38286 ft 443 kts 348°
2026-05-01 09:11 43.10564 20.85226 38289 ft 443 kts 348°
2026-05-01 09:12 43.16636 20.83797 38302 ft 443 kts 348°
2026-05-01 09:12 43.22694 20.82369 38301 ft 443 kts 348°
2026-05-01 09:13 43.28733 20.80942 38314 ft 442 kts 348°
2026-05-01 09:13 43.34792 20.79507 38307 ft 442 kts 348°
2026-05-01 09:14 43.40823 20.78076 38312 ft 442 kts 348°
2026-05-01 09:14 43.46840 20.76646 38331 ft 442 kts 349°
2026-05-01 09:15 43.52906 20.75202 38316 ft 443 kts 349°
2026-05-01 09:15 43.58970 20.73754 38321 ft 442 kts 349°
2026-05-01 09:16 43.65037 20.72303 38328 ft 442 kts 349°
2026-05-01 09:17 43.74095 20.70131 38328 ft 441 kts 349°
2026-05-01 09:17 43.83178 20.67947 38331 ft 442 kts 349°
2026-05-01 09:18 43.92259 20.65757 38322 ft 441 kts 349°
2026-05-01 09:19 44.01293 20.63570 38335 ft 440 kts 350°
2026-05-01 09:20 44.10310 20.61381 38338 ft 440 kts 350°
2026-05-01 09:21 44.22350 20.58448 38338 ft 440 kts 350°
2026-05-01 09:21 44.31384 20.56240 38337 ft 440 kts 350°
2026-05-01 09:22 44.43392 20.53292 38348 ft 438 kts 350°
2026-05-01 09:23 44.52403 20.51073 38354 ft 438 kts 351°
2026-05-01 09:24 44.61410 20.48847 38360 ft 438 kts 351°
2026-05-01 09:25 44.73357 20.45885 38363 ft 438 kts 351°
2026-05-01 09:26 44.82367 20.43642 38373 ft 438 kts 351°
2026-05-01 09:26 44.91344 20.41401 38371 ft 438 kts 351°
2026-05-01 09:27 45.00294 20.39159 38355 ft 438 kts 351°
2026-05-01 09:28 45.05289 20.37905 38354 ft 438 kts 351°
2026-05-01 09:28 45.11277 20.36398 38332 ft 438 kts 351°
2026-05-01 09:29 45.20243 20.34136 38352 ft 437 kts 351°
2026-05-01 09:30 45.29220 20.31864 38360 ft 437 kts 351°
2026-05-01 09:30 45.38190 20.29587 38359 ft 436 kts 352°
2026-05-01 09:31 45.44155 20.28069 38357 ft 436 kts 352°
2026-05-01 09:32 45.53111 20.25783 38339 ft 436 kts 352°
2026-05-01 09:32 45.62038 20.23497 38348 ft 435 kts 352°
2026-05-01 09:33 45.67993 20.21968 38350 ft 435 kts 352°
2026-05-01 09:34 45.76873 20.19683 38350 ft 435 kts 352°
2026-05-01 09:34 45.85782 20.17382 38362 ft 432 kts 352°
2026-05-01 09:35 45.94625 20.15092 38362 ft 433 kts 352°
2026-05-01 09:36 46.00529 20.13559 38358 ft 431 kts 352°
2026-05-01 09:36 46.06419 20.12026 38352 ft 430 kts 352°
2026-05-01 09:37 46.12307 20.10490 38353 ft 430 kts 352°
2026-05-01 09:37 46.18178 20.10104 38355 ft 420 kts 12°
2026-05-01 09:37 46.21067 20.10817 38321 ft 424 kts 11°
2026-05-01 09:38 46.29766 20.13065 38347 ft 423 kts 12°
2026-05-01 09:39 46.38439 20.15428 38351 ft 423 kts 12°
2026-05-01 09:39 46.44209 20.17009 38360 ft 422 kts 12°
2026-05-01 09:40 46.52854 20.19385 38345 ft 421 kts 12°
2026-05-01 09:41 46.58610 20.20970 38345 ft 421 kts 12°
2026-05-01 09:41 46.67220 20.23349 38342 ft 419 kts 13°
2026-05-01 09:42 46.72952 20.24937 38351 ft 419 kts 13°
2026-05-01 09:43 46.84359 20.28108 38354 ft 418 kts 13°
2026-05-01 09:43 46.90059 20.29697 38354 ft 417 kts 13°
2026-05-01 09:44 46.98598 20.32084 38353 ft 417 kts 13°
2026-05-01 09:45 47.04233 20.33663 38358 ft 417 kts 13°
2026-05-01 09:45 47.12782 20.36066 38369 ft 417 kts 13°
2026-05-01 09:46 47.18481 20.37673 38375 ft 417 kts 13°
2026-05-01 09:46 47.24176 20.39281 38371 ft 417 kts 13°
2026-05-01 09:47 47.29884 20.40897 38370 ft 416 kts 13°
2026-05-01 09:47 47.35578 20.42513 38363 ft 416 kts 13°
2026-05-01 09:48 47.41219 20.44116 38358 ft 416 kts 13°
2026-05-01 09:48 47.46880 20.45730 38356 ft 416 kts 13°
2026-05-01 09:49 47.52544 20.47347 38355 ft 414 kts 13°
2026-05-01 09:49 47.58193 20.48964 38349 ft 414 kts 13°
2026-05-01 09:50 47.63779 20.50566 38360 ft 413 kts 13°
2026-05-01 09:50 47.69389 20.52179 38361 ft 410 kts 13°
2026-05-01 09:51 47.74947 20.53780 38359 ft 408 kts 13°
2026-05-01 09:51 47.80516 20.55388 38359 ft 408 kts 13°
2026-05-01 09:52 47.86075 20.56997 38359 ft 408 kts 13°
2026-05-01 09:52 47.91639 20.58610 38359 ft 407 kts 13°
2026-05-01 09:53 47.97152 20.60212 38356 ft 406 kts 13°
2026-05-01 09:53 48.02697 20.61827 38352 ft 406 kts 13°
2026-05-01 09:54 48.08225 20.63441 38354 ft 406 kts 13°
2026-05-01 09:54 48.13765 20.65061 38348 ft 405 kts 13°
2026-05-01 09:55 48.19260 20.66672 38356 ft 404 kts 13°
2026-05-01 09:55 48.24785 20.68295 38354 ft 404 kts 13°
2026-05-01 09:56 48.30302 20.69920 38359 ft 404 kts 13°
2026-05-01 09:56 48.35817 20.71547 38343 ft 403 kts 13°
2026-05-01 09:57 48.41303 20.73170 38343 ft 403 kts 13°
2026-05-01 09:57 48.46804 20.74800 38345 ft 403 kts 13°
2026-05-01 09:58 48.52305 20.76435 38346 ft 403 kts 13°
2026-05-01 09:58 48.57793 20.78069 38346 ft 401 kts 13°
2026-05-01 09:59 48.63257 20.79699 38336 ft 401 kts 13°
2026-05-01 09:59 48.68736 20.81338 38337 ft 401 kts 13°
2026-05-01 10:00 48.74218 20.82980 38353 ft 401 kts 14°
2026-05-01 10:00 48.79686 20.84623 38332 ft 400 kts 14°
2026-05-01 10:01 48.85151 20.86268 38322 ft 400 kts 14°
2026-05-01 10:01 48.90571 20.87903 38340 ft 401 kts 14°
2026-05-01 10:02 48.96044 20.89559 38330 ft 400 kts 14°
2026-05-01 10:02 49.01511 20.91215 38336 ft 400 kts 14°
2026-05-01 10:03 49.06968 20.92872 38345 ft 400 kts 14°
2026-05-01 10:03 49.12417 20.94530 38349 ft 400 kts 14°
2026-05-01 10:04 49.17883 20.96197 38328 ft 400 kts 14°
2026-05-01 10:04 49.23342 20.97866 38336 ft 400 kts 14°
2026-05-01 10:05 49.28804 20.99539 38345 ft 400 kts 14°
2026-05-01 10:05 49.34255 21.01057 38336 ft 402 kts
2026-05-01 10:06 49.39858 21.01425 38334 ft 403 kts
2026-05-01 10:06 49.45469 21.01801 38326 ft 403 kts
2026-05-01 10:07 49.51077 21.02173 38335 ft 403 kts
2026-05-01 10:07 49.56688 21.02544 38337 ft 403 kts
2026-05-01 10:08 49.65093 21.03100 38329 ft 403 kts
2026-05-01 10:09 49.70696 21.03472 38347 ft 403 kts
2026-05-01 10:09 49.76307 21.03846 38344 ft 403 kts
2026-05-01 10:10 49.81914 21.04219 38346 ft 403 kts
2026-05-01 10:10 49.90322 21.04782 38090 ft 402 kts
2026-05-01 10:11 49.93117 21.04970 37333 ft 402 kts
2026-05-01 10:11 49.95889 21.05156 36896 ft 395 kts
2026-05-01 10:11 49.98611 21.05339 36537 ft 387 kts
2026-05-01 10:11 50.00385 21.05458 36302 ft 383 kts
2026-05-01 10:12 50.03015 21.05636 35915 ft 376 kts
2026-05-01 10:12 50.05668 21.05815 35332 ft 384 kts
2026-05-01 10:12 50.11905 21.06236 33645 ft 386 kts
2026-05-01 10:13 50.14571 21.06415 33102 ft 381 kts
2026-05-01 10:13 50.16354 21.06536 32751 ft 377 kts
2026-05-01 10:13 50.18956 21.06712 32340 ft 371 kts
2026-05-01 10:14 50.24073 21.07060 31405 ft 370 kts
2026-05-01 10:14 50.26659 21.07236 30917 ft 373 kts
2026-05-01 10:14 50.29222 21.07410 30435 ft 373 kts
2026-05-01 10:14 50.31803 21.07586 29881 ft 370 kts
2026-05-01 10:15 50.34367 21.07760 29390 ft 368 kts
2026-05-01 10:15 50.36911 21.07934 28914 ft 365 kts
2026-05-01 10:15 50.39443 21.08107 28459 ft 362 kts
2026-05-01 10:15 50.41954 21.08279 28002 ft 360 kts
2026-05-01 10:16 50.44446 21.08450 27555 ft 357 kts
2026-05-01 10:16 50.46919 21.08619 27102 ft 355 kts
2026-05-01 10:16 50.51822 21.08956 26216 ft 350 kts
2026-05-01 10:17 50.54249 21.09123 25770 ft 348 kts
2026-05-01 10:17 50.59061 21.09455 24924 ft 344 kts
2026-05-01 10:17 50.61440 21.09618 24501 ft 341 kts
2026-05-01 10:18 50.66146 21.09944 23637 ft 335 kts
2026-05-01 10:18 50.68461 21.10104 23198 ft 331 kts
2026-05-01 10:18 50.70747 21.10262 22794 ft 327 kts
2026-05-01 10:19 50.73004 21.10419 22413 ft 322 kts
2026-05-01 10:19 50.75237 21.10574 22055 ft 319 kts
2026-05-01 10:19 50.77444 21.10727 21669 ft 315 kts
2026-05-01 10:20 50.81828 21.11033 20952 ft 322 kts
2026-05-01 10:20 50.84084 21.11190 20588 ft 324 kts
2026-05-01 10:20 50.86338 21.11347 20203 ft 324 kts
2026-05-01 10:20 50.88590 21.11504 19855 ft 323 kts
2026-05-01 10:21 50.90835 21.11661 19495 ft 322 kts
2026-05-01 10:21 50.95261 21.11971 18804 ft 315 kts
2026-05-01 10:21 50.97438 21.12123 18441 ft 312 kts
2026-05-01 10:22 51.01725 21.12424 17724 ft 304 kts
2026-05-01 10:22 51.05940 21.12721 17055 ft 306 kts
2026-05-01 10:23 51.08084 21.12871 16711 ft 310 kts
2026-05-01 10:23 51.12394 21.13175 16039 ft 309 kts
2026-05-01 10:23 51.14534 21.13326 15706 ft 307 kts
2026-05-01 10:24 51.18764 21.13625 15042 ft 305 kts
2026-05-01 10:24 51.22989 21.13925 14373 ft 303 kts
2026-05-01 10:25 51.27176 21.14222 13659 ft 299 kts
2026-05-01 10:25 51.31278 21.14513 12990 ft 290 kts
2026-05-01 10:26 51.33284 21.14656 12673 ft 287 kts
2026-05-01 10:26 51.35264 21.14797 12350 ft 283 kts
2026-05-01 10:26 51.39256 21.15082 11456 ft 292 kts
2026-05-01 10:27 51.43305 21.15371 10807 ft 286 kts
2026-05-01 10:27 51.47120 21.15644 10527 ft 263 kts
2026-05-01 10:28 51.48910 21.15772 10419 ft 252 kts
2026-05-01 10:28 51.52287 21.16015 10178 ft 235 kts
2026-05-01 10:28 51.53912 21.16132 10056 ft 236 kts
2026-05-01 10:29 51.57298 21.16375 9562 ft 247 kts
2026-05-01 10:29 51.59006 21.16498 9298 ft 247 kts
2026-05-01 10:30 51.62455 21.16747 8771 ft 248 kts
2026-05-01 10:30 51.65905 21.16997 8234 ft 248 kts
2026-05-01 10:31 51.69356 21.17245 7715 ft 248 kts
2026-05-01 10:31 51.72785 21.17493 7176 ft 245 kts
2026-05-01 10:32 51.76130 21.17735 6658 ft 240 kts
2026-05-01 10:32 51.77788 21.17855 6390 ft 237 kts
2026-05-01 10:32 51.81056 21.18093 5859 ft 233 kts
2026-05-01 10:33 51.84311 21.18329 5374 ft 239 kts
2026-05-01 10:33 51.87626 21.18571 5030 ft 232 kts
2026-05-01 10:34 51.89212 21.18694 4901 ft 226 kts
2026-05-01 10:34 51.90802 21.18697 4743 ft 231 kts 351°
2026-05-01 10:34 51.92335 21.17867 4448 ft 234 kts 335°
2026-05-01 10:35 51.95187 21.15327 4107 ft 231 kts 333°
2026-05-01 10:35 51.96572 21.14116 4041 ft 222 kts 333°
2026-05-01 10:35 51.97919 21.12949 3886 ft 217 kts 333°
2026-05-01 10:35 51.99231 21.11809 3735 ft 209 kts 332°
2026-05-01 10:36 52.01701 21.09664 3362 ft 196 kts 333°
2026-05-01 10:36 52.02873 21.08648 3162 ft 185 kts 333°
2026-05-01 10:36 52.03966 21.07697 2919 ft 172 kts 332°
2026-05-01 10:37 52.05003 21.06796 2713 ft 167 kts 332°
2026-05-01 10:37 52.07039 21.05031 2311 ft 161 kts 333°
2026-05-01 10:37 52.07985 21.04203 2069 ft 150 kts 332°
2026-05-01 10:38 52.08894 21.03408 1906 ft 142 kts 332°
2026-05-01 10:38 52.09763 21.02650 1701 ft 142 kts 332°
2026-05-01 10:38 52.10640 21.01889 1441 ft 145 kts 331°
2026-05-01 10:38 52.11512 21.01102 1291 ft 144 kts 332°
2026-05-01 10:39 52.12390 21.00351 1091 ft 140 kts 333°
2026-05-01 10:39 52.13256 20.99598 885 ft 143 kts 332°
2026-05-01 10:39 52.14126 20.98849 688 ft 140 kts 332°
2026-05-01 10:39 52.14984 20.98101 501 ft 140 kts 332°
2026-05-01 10:40 52.15827 20.97366 352 ft 130 kts 332°
2026-05-01 10:40 52.16493 20.96781 342 ft 78 kts 332°
2026-05-01 10:40 52.16800 20.96538 351 ft 33 kts 343°
2026-05-01 10:40 52.17037 20.96516 339 ft 22 kts
2026-05-01 10:41 52.17080 20.96547 341 ft 0 kts 45°
2026-05-01 10:41 52.17084 20.96554 337 ft 2 kts 51°
2026-05-01 10:41 52.17112 20.96635 338 ft 7 kts 62°
2026-05-01 10:42 52.17138 20.96714 341 ft 9 kts 61°
2026-05-01 10:42 52.17162 20.96819 338 ft 11 kts 104°
2026-05-01 10:42 52.17097 20.96893 340 ft 13 kts 152°
2026-05-01 10:42 52.17045 20.96882 339 ft 7 kts 253°
2026-05-01 10:43 52.17046 20.96817 341 ft 1 kts 275°
2026-05-01 10:43 52.17047 20.96802 341 ft 0 kts 276°